TFL8DS EHAM-EFKT

Flight info

Callsign TFL8DS
Flight time N/A
Altitude 35000
Route ANDIK N873 KEKIX Z708 AGISU DCT DOROR DCT RERPA DCT AMSEV DCT NEDZA DCT LULIL DCT IXUMA DCT INREX DCT ARPIV DCT OSLAV DCT LUKIG DCT UNKAS DCT BESLA DCT ASKEB DCT PERKE DCT EVIMI
Aircraft A320/M-SDE3FGHIRWY/LB1

Departure

Time N/A
Airport Amsterdam Airport Schiphol (EHAM)

Arrival

Time 2026-04-21 22:34
Airport Kittilä International Airport (EFKT)
Time Latitude Longitude Altitude Speed Heading
2026-04-21 22:15 66.49263 23.44098 34412 ft 392 kts 30°
2026-04-21 22:15 66.51432 23.48103 34161 ft 384 kts 30°
2026-04-21 22:15 66.53568 23.52047 33909 ft 376 kts 30°
2026-04-21 22:15 66.55661 23.55901 33653 ft 372 kts 30°
2026-04-21 22:16 66.57744 23.59731 33402 ft 370 kts 30°
2026-04-21 22:16 66.59819 23.63556 33171 ft 369 kts 30°
2026-04-21 22:16 66.61880 23.67372 32906 ft 367 kts 30°
2026-04-21 22:16 66.63937 23.71199 32654 ft 367 kts 30°
2026-04-21 22:17 66.65958 23.74974 32408 ft 365 kts 30°
2026-04-21 22:17 66.67995 23.78793 32158 ft 364 kts 30°
2026-04-21 22:17 66.70025 23.82606 31786 ft 364 kts 30°
2026-04-21 22:17 66.72075 23.86461 31164 ft 367 kts 30°
2026-04-21 22:18 66.74100 23.90284 30820 ft 362 kts 30°
2026-04-21 22:18 66.75430 23.92825 30507 ft 361 kts 30°
2026-04-21 22:18 66.78096 23.97985 29914 ft 359 kts 30°
2026-04-21 22:18 66.79403 24.00529 29617 ft 357 kts 30°
2026-04-21 22:19 66.81398 24.04418 29159 ft 356 kts 30°
2026-04-21 22:19 66.83333 24.08198 28679 ft 356 kts 30°
2026-04-21 22:19 66.85284 24.12021 28042 ft 353 kts 29°
2026-04-21 22:19 66.87223 24.15827 27327 ft 350 kts 28°
2026-04-21 22:20 66.89137 24.19584 26602 ft 346 kts 28°
2026-04-21 22:20 66.91039 24.23319 25856 ft 343 kts 28°
2026-04-21 22:20 66.92917 24.27015 25108 ft 340 kts 27°
2026-04-21 22:20 66.94779 24.30685 24366 ft 337 kts 27°
2026-04-21 22:21 66.96625 24.34342 23618 ft 334 kts 27°
2026-04-21 22:21 66.98454 24.37971 22892 ft 331 kts 27°
2026-04-21 22:21 67.00267 24.41574 22145 ft 329 kts 27°
2026-04-21 22:21 67.02065 24.45150 21404 ft 326 kts 27°
2026-04-21 22:22 67.03845 24.48697 20677 ft 324 kts 27°
2026-04-21 22:22 67.05614 24.52233 19950 ft 321 kts 27°
2026-04-21 22:22 67.07369 24.55752 19248 ft 318 kts 27°
2026-04-21 22:22 67.09107 24.59237 18538 ft 316 kts 28°
2026-04-21 22:23 67.10813 24.62660 17844 ft 314 kts 28°
2026-04-21 22:23 67.12530 24.66108 17162 ft 312 kts 28°
2026-04-21 22:23 67.14252 24.69572 16490 ft 309 kts 28°
2026-04-21 22:23 67.15913 24.72926 15862 ft 306 kts 28°
2026-04-21 22:24 67.17593 24.76322 15219 ft 304 kts 29°
2026-04-21 22:24 67.19244 24.79671 14579 ft 301 kts 29°
2026-04-21 22:24 67.20884 24.83004 13945 ft 299 kts 29°
2026-04-21 22:24 67.22507 24.86303 13311 ft 296 kts 29°
2026-04-21 22:25 67.24128 24.89481 12663 ft 288 kts 22°
2026-04-21 22:25 67.25912 24.91532 12000 ft 275 kts
2026-04-21 22:25 67.27779 24.92226 11274 ft 268 kts 358°
2026-04-21 22:25 67.29619 24.92540 10566 ft 269 kts 358°
2026-04-21 22:26 67.31485 24.92884 9853 ft 270 kts 359°
2026-04-21 22:26 67.33365 24.93248 9130 ft 270 kts 359°
2026-04-21 22:26 67.35240 24.93620 8410 ft 270 kts 359°
2026-04-21 22:26 67.37112 24.93989 7700 ft 270 kts 359°
2026-04-21 22:27 67.38973 24.94349 7037 ft 267 kts 359°
2026-04-21 22:27 67.40792 24.94703 6600 ft 257 kts 359°
2026-04-21 22:27 67.42540 24.95047 6221 ft 246 kts 359°
2026-04-21 22:27 67.44215 24.95379 5872 ft 236 kts 358°
2026-04-21 22:28 67.45828 24.95697 5535 ft 230 kts 358°
2026-04-21 22:28 67.47391 24.96004 5214 ft 219 kts 358°
2026-04-21 22:28 67.48794 24.96291 5075 ft 192 kts 358°
2026-04-21 22:28 67.50032 24.96550 5013 ft 163 kts 356°
2026-04-21 22:29 67.51063 24.96628 4990 ft 140 kts 345°
2026-04-21 22:29 67.52018 24.96197 4624 ft 137 kts 342°
2026-04-21 22:29 67.52950 24.95682 4349 ft 137 kts 340°
2026-04-21 22:29 67.53883 24.95124 4111 ft 138 kts 340°
2026-04-21 22:30 67.54814 24.94548 3888 ft 137 kts 340°
2026-04-21 22:30 67.55743 24.93961 3674 ft 137 kts 339°
2026-04-21 22:30 67.56668 24.93371 3466 ft 136 kts 339°
2026-04-21 22:30 67.57587 24.92782 3260 ft 136 kts 339°
2026-04-21 22:31 67.58505 24.92192 3054 ft 136 kts 340°
2026-04-21 22:31 67.59421 24.91603 2850 ft 135 kts 340°
2026-04-21 22:31 67.60326 24.91019 2646 ft 135 kts 340°
2026-04-21 22:31 67.61238 24.90430 2455 ft 135 kts 341°
2026-04-21 22:32 67.62147 24.89843 2243 ft 134 kts 342°
2026-04-21 22:32 67.63050 24.89260 2044 ft 134 kts 342°
2026-04-21 22:32 67.63957 24.88673 1839 ft 134 kts 343°
2026-04-21 22:32 67.64858 24.88091 1639 ft 133 kts 343°
2026-04-21 22:33 67.65754 24.87510 1440 ft 132 kts 343°
2026-04-21 22:33 67.66646 24.86931 1249 ft 132 kts 343°
2026-04-21 22:33 67.67537 24.86354 1042 ft 132 kts 343°
2026-04-21 22:33 67.68426 24.85779 847 ft 132 kts 344°
2026-04-21 22:34 67.69333 24.85206 661 ft 128 kts 345°
2026-04-21 22:34 67.70047 24.84718 638 ft 69 kts 345°
2026-04-21 22:34 67.70281 24.84574 645 ft 17 kts 347°
2026-04-21 22:34 67.70400 24.84503 641 ft 19 kts 346°
2026-04-21 22:35 67.70530 24.84421 641 ft 19 kts 346°
2026-04-21 22:35 67.70635 24.84357 637 ft 12 kts 349°
2026-04-21 22:35 67.70715 24.84426 637 ft 11 kts 52°
2026-04-21 22:35 67.70732 24.84553 635 ft 6 kts 82°
2026-04-21 22:36 67.70688 24.84713 638 ft 4 kts 162°
2026-04-21 22:36 67.70659 24.84723 636 ft 8 kts 182°
2026-04-21 22:36 67.70615 24.84695 636 ft 0 kts 200°
2026-04-21 22:38 67.69315 24.85790 644 ft 0 kts 78°